#timestamp,LO_Frequency,Hit,StdDev 
1610456415.6,286046997.4,N
1610456435.4,286046997.2,N
1610456455.3,286046999.6,N
1610456475.1,286046996.8,N
1610456476.0,286046996.8,N
1610456495.8,286046994.9,Y
1610456515.7,286047000.8,P
1610456535.5,286047000.1,N
1610456555.4,286047003.7,N
1610456575.2,286047002.5,N
1610456595.0,286047000.0,N
1610456595.9,286047000.0,N
1610456615.8,286046999.9,N
1610456635.6,286047000.3,N
1610456655.5,286047001.0,N
1610456675.3,286047000.3,N
1610456695.1,286047001.2,N
1610456715.9,286047000.9,N
1610456735.7,286047000.8,N
1610456755.5,286047001.0,N
1610456775.4,286046998.1,N
1610456795.2,286047001.1,N
1610456815.1,286046999.5,N
1610456816.0,286046999.5,N
1610456835.8,286046999.3,N
1610456855.6,286046998.2,N
1610456875.5,286046998.8,N
1610456895.3,286046998.2,N
1610456915.1,286047000.8,N
1610456935.9,286047000.4,N
1610456955.7,286047001.5,N
1610456975.6,286047002.6,N
1610456995.4,286047002.5,N
1610457015.2,286047003.5,N
1610457035.1,286047004.0,N
1610457036.0,286047004.0,N
1610457055.8,286047001.5,N
1610457075.7,286047001.4,N
1610457095.5,286047002.2,N
1610457115.3,286047001.8,N
1610457135.2,286047001.7,N
1610457155.0,286047002.3,N
1610457155.9,286047002.3,N
1610457175.7,286047002.0,N
1610457195.6,286047002.3,N
1610457215.4,286047001.8,N
1610457235.3,286047002.5,N
1610457255.1,286047002.2,N
1610457256.0,286047002.2,N
1610457275.8,286047002.2,N
1610457295.7,286047001.0,N
1610457315.5,286047002.2,N
1610457335.4,286046999.7,N
1610457355.2,286047002.3,N
1610457375.0,286047001.3,N
1610457375.9,286047001.3,N
1610457395.8,286047003.3,N
1610457415.6,286047005.8,Y
1610457435.4,286047001.3,P
1610457455.3,286047001.8,P
1610457475.1,286047002.6,P
1610457495.9,286047000.2,N
1610457515.7,286047000.6,N
1610457535.5,286047000.6,N
1610457555.4,286046999.8,N
1610457575.2,286047004.4,Y
1610457595.0,286047002.1,P
1610457595.9,286047002.1,P
1610457615.8,286047002.7,P
1610457635.6,286047002.2,Y
1610457655.5,286047002.6,P
1610457675.3,286046998.5,P
1610457695.1,286046997.3,N
1610457715.9,286046995.5,N
1610457735.7,286046995.9,N
1610457755.5,286046997.9,N
1610457775.4,286046997.9,N
1610457795.2,286046995.7,N
1610457815.1,286046995.5,N
1610457816.0,286046995.5,N
1610457835.8,286046997.3,N
1610457855.6,286046999.3,N
1610457875.5,286046999.5,N
1610457895.3,286046999.2,N
1610457945.2,286046995.2,E
1610457955.1,286046998.3,N
1610457956.0,286046998.3,P
1610457975.8,286047002.0,P
1610457995.7,286047001.7,N
1610458015.5,286047001.9,N
1610458035.4,286047001.9,N
1610458055.2,286047002.4,N
1610458075.0,286047001.9,N
1610458075.9,286047001.9,N
1610458095.8,286046999.7,N
1610458115.6,286047002.0,N
1610458135.4,286047002.1,N
1610458155.3,286047002.4,N
1610458175.1,286047002.2,N
1610458195.9,286047002.5,N
1610458215.7,286047002.4,N
1610458235.5,286047002.5,N
1610458255.4,286047002.0,N
1610458275.2,286047003.5,N
1610458295.0,286047001.8,N
1610458295.9,286047001.8,N
1610458315.8,286047003.6,N
1610458335.6,286047004.0,Y
1610458355.5,286047002.3,P
1610458375.3,286047002.5,P
1610458395.1,286047001.6,P
1610458415.9,286047001.6,Y
1610458435.7,286047001.0,P
1610458455.6,286047000.4,N
1610458475.4,286047000.9,N
1610458495.2,286046998.1,Y
1610458515.1,286046998.6,P
1610458516.0,286046998.6,N
1610458535.8,286046999.5,N
1610458555.6,286046996.8,Y
1610458575.5,286046999.3,P
1610458595.3,286047000.9,P
1610458615.2,286047000.5,N
1610458635.9,286047000.2,N
1610458655.7,286047000.3,N
1610458675.6,286047001.1,N
1610458695.4,286047001.2,N
1610458715.2,286047001.0,N
1610458735.1,286047000.4,N
1610458736.0,286047000.4,N
1610458755.8,286047001.2,N
1610458775.7,286046999.0,N
1610458795.5,286046998.2,N
1610458815.3,286046998.1,N
1610458835.2,286046998.2,N
1610458855.0,286046998.7,N
1610458855.9,286046998.7,N
1610458875.8,286046998.8,N
1610458895.6,286046998.7,N
1610458915.4,286046998.1,N
1610458935.3,286046998.1,N
1610458955.1,286046999.0,N
1610458975.8,286046998.3,N
1610458995.7,286046998.4,N
1610459015.5,286046998.3,N
1610459035.3,286047000.7,N
1610459055.2,286046999.3,N
1610459075.0,286046999.2,N
1610459075.9,286046999.2,N
1610459095.8,286046998.7,N
1610459115.6,286046999.1,N
1610459135.4,286046999.5,N
1610459155.3,286046998.7,N
1610459175.1,286046998.4,N
1610459195.9,286046998.5,N
1610459215.7,286046999.4,N
1610459235.5,286046999.5,N
1610459255.4,286046998.7,N
1610459275.2,286046998.4,N
1610459295.0,286047001.1,N
1610459295.9,286047001.1,N
1610459315.8,286047000.9,N
1610459335.6,286047000.8,N
1610459355.5,286046998.9,N
1610459375.3,286047001.0,N
1610459395.1,286046998.8,N
1610459415.9,286046998.6,N
1610459435.7,286047001.2,N
1610459455.5,286046998.2,N
1610459475.4,286047000.6,N
1610459495.2,286047001.4,N
1610459515.0,286047000.2,N
1610459516.0,286047000.2,N
1610459535.8,286047000.7,N
1610459555.6,286047001.1,N
1610459575.5,286046996.7,Y
1610459595.3,286046998.1,P
1610459615.1,286046998.1,N
1610459635.9,286046998.9,N
1610459655.7,286046999.3,N
1610459675.6,286046998.2,N
1610459695.4,286046998.5,N
1610459715.2,286047001.2,N
1610459735.1,286047001.0,N
1610459736.0,286047001.0,N
1610459755.8,286046998.1,N
1610459775.6,286046998.3,N
1610459795.5,286046998.6,N
1610459815.3,286047000.3,N
1610459835.2,286047000.4,N
1610459855.9,286046998.1,N
1610459875.7,286047000.2,N
1610459895.6,286047000.5,N
1610459915.4,286047000.1,N
1610459935.2,286047000.7,N
1610459955.1,286046998.1,N
1610459956.0,286046998.1,N
1610459975.8,286046999.0,N
1610459995.7,286047001.2,N
